リード彗星

344P/Read (2006)

English version
Home page
Updated on December 25, 2016

---------------------------------------------------------------------

・ プロフィール

符号 344P/2005 S3
発見日 2005年9月30日
発見光度 19.2等
発見者 Michael T. Read (Spacewatch)

・ 軌道要素

Epoch 2006 Jan. 25.0 TT = JDT 2453760.5
T 2006 Jan. 8.77083 TT                                  MPCW
q   2.8422230            (2000.0)            P               Q
n   0.09081573     Peri.  140.51276     +0.58707124     -0.80726597
a   4.9018724      Node   273.45496     +0.72654017     +0.55840826
e   0.4201761      Incl.    3.47900     +0.35705286     +0.19105463
P  10.85
From 289 observations 1951 Dec. 1-2016 Oct. 24, mean residual 0".6.

・ 光度変化

        m1 = 5.0 + 5 logΔ + 25.0 log r

---------------------------------------------------------------------

軌道要素はM.P.E.C. 2016-U66に掲載されたものです。
光度グラフはComet for Windowsで作成したものです。

---------------------------------------------------------------------

Copyright(C) Seiichi Yoshida (comet@aerith.net). All rights reserved.